User: anonymous   Login
Location: Newark
(36.1358°N, 115.1208°W)
Time: 03:51:31
(UTC+00:00)
Language:

XW-2C - Orbit

View from above orbital plane
View from above orbital plane
View from above satellite
View from above satellite

Ground track
Ground track

The orbit data is extracted from the following two-line orbital elements,

1 40906U 15049H   20092.82047661  .00000551  00000-0  32144-4 0  9994
2 40906  97.4774  95.3054 0012965 281.7767 200.9632 15.15985691250645
Epoch (UTC): 01 April 2020 19:41:29
Eccentricity: 0.0012965
inclination: 97.4774°
perigee height: 509 km
apogee height: 527 km
right ascension of ascending node: 95.3054°
argument of perigee: 281.7767°
revolutions per day: 15.15985691
mean anomaly at epoch: 200.9632°
orbit number at epoch: 25064

The dashed part of the orbit path shows where the satellite is in the earth's shadow,  

DLR